Wetterdaten: Samstag, 15.11.2014
Datum Zeit Temp. A. Feuchte A. Luftdruck Regen Wind Richtung Richtung Sonnenschein ET UV Solar Taupunkt Windchill Windben Empfang
15.11.2014 00:00 5,7 C 85 % 1006,9 hPa 0,0 l/m 0,0 km/h (0 Bft) W-SW 251 0 min 0,000 mm 0,0 UV-I 0 W/m 3,4 C 5,7 C 0,0 km/h (0 Bft) 0,00 %
15.11.2014 00:15 5,4 C 86 % 1006,7 hPa 0,0 l/m 0,0 km/h (0 Bft) W-SW 251 0 min 0,000 mm 0,0 UV-I 0 W/m 3,3 C 5,4 C 0,0 km/h (0 Bft) 0,00 %
15.11.2014 00:30 5,3 C 86 % 1007,0 hPa 0,0 l/m 0,0 km/h (0 Bft) W-SW 251 0 min 0,000 mm 0,0 UV-I 0 W/m 3,2 C 5,3 C 0,0 km/h (0 Bft) 0,00 %
15.11.2014 00:45 5,4 C 85 % 1006,8 hPa 0,3 l/m 0,0 km/h (0 Bft) W-SW 251 0 min 0,000 mm 0,0 UV-I 0 W/m 3,1 C 5,4 C 0,0 km/h (0 Bft) 0,00 %
15.11.2014 01:00 5,6 C 85 % 1006,5 hPa 0,0 l/m 0,0 km/h (0 Bft) SW 218 0 min 0,000 mm 0,0 UV-I 0 W/m 3,3 C 5,6 C 0,0 km/h (0 Bft) 0,00 %
15.11.2014 01:15 5,7 C 85 % 1006,4 hPa 0,0 l/m 0,0 km/h (0 Bft) SW 221 0 min 0,000 mm 0,0 UV-I 0 W/m 3,4 C 5,7 C 0,0 km/h (0 Bft) 0,00 %
15.11.2014 01:30 5,7 C 85 % 1006,1 hPa 0,0 l/m 0,0 km/h (0 Bft) SW 220 0 min 0,000 mm 0,0 UV-I 0 W/m 3,4 C 5,7 C 0,0 km/h (0 Bft) 0,00 %
15.11.2014 01:45 5,6 C 85 % 1006,1 hPa 0,0 l/m 0,0 km/h (0 Bft) SW 220 0 min 0,000 mm 0,0 UV-I 0 W/m 3,3 C 5,6 C 0,0 km/h (0 Bft) 0,00 %
15.11.2014 02:00 5,5 C 86 % 1005,8 hPa 0,0 l/m 0,0 km/h (0 Bft) SW 220 0 min 0,000 mm 0,0 UV-I 0 W/m 3,3 C 5,5 C 0,0 km/h (0 Bft) 0,00 %
15.11.2014 02:15 5,4 C 86 % 1005,9 hPa 0,0 l/m 0,0 km/h (0 Bft) SW 220 0 min 0,000 mm 0,0 UV-I 0 W/m 3,3 C 5,4 C 0,0 km/h (0 Bft) 0,00 %
15.11.2014 02:30 5,3 C 86 % 1005,9 hPa 0,0 l/m 0,0 km/h (0 Bft) W-SW 256 0 min 0,000 mm 0,0 UV-I 0 W/m 3,2 C 5,3 C 0,0 km/h (0 Bft) 0,00 %
15.11.2014 02:45 5,4 C 85 % 1005,6 hPa 0,0 l/m 0,0 km/h (0 Bft) W-SW 256 0 min 0,000 mm 0,0 UV-I 0 W/m 3,1 C 5,4 C 0,0 km/h (0 Bft) 0,00 %
15.11.2014 03:00 5,4 C 86 % 1005,3 hPa 0,0 l/m 0,0 km/h (0 Bft) W-SW 256 0 min 0,000 mm 0,0 UV-I 0 W/m 3,3 C 5,4 C 0,0 km/h (0 Bft) 0,00 %
15.11.2014 03:15 5,3 C 86 % 1005,0 hPa 0,0 l/m 0,0 km/h (0 Bft) W-SW 256 0 min 0,000 mm 0,0 UV-I 0 W/m 3,2 C 5,3 C 0,0 km/h (0 Bft) 0,00 %
15.11.2014 03:30 5,3 C 86 % 1005,0 hPa 0,0 l/m 0,0 km/h (0 Bft) W-SW 256 0 min 0,000 mm 0,0 UV-I 0 W/m 3,2 C 5,3 C 0,0 km/h (0 Bft) 0,00 %
15.11.2014 03:45 5,2 C 86 % 1004,8 hPa 0,0 l/m 0,0 km/h (0 Bft) W-SW 256 0 min 0,000 mm 0,0 UV-I 0 W/m 3,1 C 5,2 C 0,0 km/h (0 Bft) 0,00 %
15.11.2014 04:00 5,2 C 86 % 1004,7 hPa 0,0 l/m 0,0 km/h (0 Bft) W-SW 256 0 min 0,000 mm 0,0 UV-I 0 W/m 3,1 C 5,2 C 0,0 km/h (0 Bft) 0,00 %
15.11.2014 04:15 5,1 C 86 % 1004,8 hPa 0,0 l/m 0,0 km/h (0 Bft) W-SW 256 0 min 0,000 mm 0,0 UV-I 0 W/m 3,0 C 5,1 C 0,0 km/h (0 Bft) 0,00 %
15.11.2014 04:30 5,0 C 86 % 1004,5 hPa 0,0 l/m 0,0 km/h (0 Bft) W-SW 256 0 min 0,000 mm 0,0 UV-I 0 W/m 2,9 C 5,0 C 0,0 km/h (0 Bft) 0,00 %
15.11.2014 04:45 4,8 C 85 % 1004,6 hPa 0,0 l/m 0,0 km/h (0 Bft) W-SW 256 0 min 0,000 mm 0,0 UV-I 0 W/m 2,5 C 4,8 C 0,0 km/h (0 Bft) 0,00 %
15.11.2014 05:00 4,7 C 85 % 1004,4 hPa 0,0 l/m 0,0 km/h (0 Bft) W-SW 256 0 min 0,000 mm 0,0 UV-I 0 W/m 2,4 C 4,7 C 0,0 km/h (0 Bft) 0,00 %
15.11.2014 05:15 4,6 C 85 % 1004,1 hPa 0,0 l/m 0,0 km/h (0 Bft) W-SW 256 0 min 0,000 mm 0,0 UV-I 0 W/m 2,3 C 4,6 C 0,0 km/h (0 Bft) 0,00 %
15.11.2014 05:30 4,5 C 86 % 1004,2 hPa 0,0 l/m 0,0 km/h (0 Bft) W-SW 256 0 min 0,000 mm 0,0 UV-I 0 W/m 2,4 C 4,5 C 0,0 km/h (0 Bft) 0,00 %
15.11.2014 05:45 4,4 C 86 % 1004,1 hPa 0,0 l/m 0,0 km/h (0 Bft) W-SW 256 0 min 0,000 mm 0,0 UV-I 0 W/m 2,3 C 4,4 C 0,0 km/h (0 Bft) 0,00 %
15.11.2014 06:00 4,3 C 86 % 1004,1 hPa 0,0 l/m 0,0 km/h (0 Bft) W-SW 256 0 min 0,000 mm 0,0 UV-I 0 W/m 2,2 C 4,3 C 0,0 km/h (0 Bft) 0,00 %
15.11.2014 06:15 4,2 C 86 % 1003,8 hPa 0,0 l/m 0,0 km/h (0 Bft) W-SW 256 0 min 0,000 mm 0,0 UV-I 0 W/m 2,1 C 4,2 C 0,0 km/h (0 Bft) 0,00 %
15.11.2014 06:30 4,1 C 86 % 1003,9 hPa 0,0 l/m 0,0 km/h (0 Bft) W-SW 256 0 min 0,000 mm 0,0 UV-I 0 W/m 2,0 C 4,1 C 0,0 km/h (0 Bft) 0,00 %
15.11.2014 06:45 4,0 C 86 % 1003,8 hPa 0,0 l/m 0,0 km/h (0 Bft) W-SW 256 0 min 0,000 mm 0,0 UV-I 0 W/m 1,9 C 4,0 C 0,0 km/h (0 Bft) 0,00 %
15.11.2014 07:00 3,9 C 86 % 1004,0 hPa 0,0 l/m 0,0 km/h (0 Bft) W-SW 256 0 min 0,000 mm 0,0 UV-I 0 W/m 1,8 C 3,9 C 0,0 km/h (0 Bft) 0,00 %
15.11.2014 07:15 4,1 C 86 % 1004,0 hPa 0,0 l/m 0,0 km/h (0 Bft) W-SW 256 0 min 0,000 mm 0,0 UV-I 0 W/m 2,0 C 4,1 C 0,0 km/h (0 Bft) 0,00 %
15.11.2014 07:30 4,2 C 86 % 1003,7 hPa 0,0 l/m 0,0 km/h (0 Bft) W-SW 256 15 min 0,000 mm 0,0 UV-I 30 W/m 2,1 C 4,2 C 0,0 km/h (0 Bft) 0,00 %
15.11.2014 07:45 4,5 C 85 % 1003,8 hPa 0,0 l/m 0,0 km/h (0 Bft) W-SW 256 15 min 0,000 mm 0,0 UV-I 92 W/m 2,2 C 4,5 C 0,0 km/h (0 Bft) 0,00 %
15.11.2014 08:00 4,7 C 86 % 1003,8 hPa 0,0 l/m 0,0 km/h (0 Bft) W-SW 256 15 min 0,000 mm 1,0 UV-I 165 W/m 2,6 C 4,7 C 0,0 km/h (0 Bft) 0,00 %
15.11.2014 08:15 4,9 C 86 % 1003,6 hPa 0,0 l/m 0,0 km/h (0 Bft) W-SW 252 15 min 0,000 mm 1,0 UV-I 226 W/m 2,8 C 4,9 C 0,0 km/h (0 Bft) 0,00 %
15.11.2014 08:30 5,0 C 86 % 1003,8 hPa 0,0 l/m 0,0 km/h (0 Bft) SW 234 15 min 0,000 mm 1,0 UV-I 310 W/m 2,9 C 5,0 C 0,0 km/h (0 Bft) 0,00 %
15.11.2014 08:45 5,3 C 86 % 1003,9 hPa 0,0 l/m 0,0 km/h (0 Bft) SW 234 15 min 0,000 mm 1,0 UV-I 336 W/m 3,2 C 5,3 C 0,0 km/h (0 Bft) 0,00 %
15.11.2014 09:00 6,0 C 85 % 1003,4 hPa 0,0 l/m 0,0 km/h (0 Bft) SW 234 15 min 0,000 mm 1,0 UV-I 417 W/m 3,7 C 6,0 C 0,0 km/h (0 Bft) 0,00 %
15.11.2014 09:15 6,9 C 84 % 1003,2 hPa 0,0 l/m 0,0 km/h (0 Bft) S-SW 206 15 min 0,000 mm 1,0 UV-I 439 W/m 4,4 C 6,9 C 0,0 km/h (0 Bft) 0,00 %
15.11.2014 09:30 7,2 C 84 % 1003,3 hPa 0,0 l/m 0,0 km/h (0 Bft) W-SW 251 15 min 0,000 mm 1,0 UV-I 482 W/m 4,7 C 7,2 C 0,0 km/h (0 Bft) 0,00 %
15.11.2014 09:45 7,4 C 84 % 1003,3 hPa 0,0 l/m 0,4 km/h (0 Bft) N-NO 29 15 min 0,000 mm 2,0 UV-I 553 W/m 4,9 C 7,4 C 4,0 km/h (1 Bft) 0,00 %
15.11.2014 10:00 7,9 C 84 % 1003,2 hPa 0,0 l/m 0,0 km/h (0 Bft) S 181 15 min 0,000 mm 2,0 UV-I 571 W/m 5,4 C 7,9 C 0,0 km/h (0 Bft) 0,00 %
15.11.2014 10:15 8,1 C 84 % 1003,2 hPa 0,0 l/m 0,0 km/h (0 Bft) O-SO 122 15 min 0,000 mm 2,0 UV-I 606 W/m 5,6 C 8,1 C 0,0 km/h (0 Bft) 0,00 %
15.11.2014 10:30 8,2 C 83 % 1003,1 hPa 0,0 l/m 0,0 km/h (0 Bft) O-SO 120 15 min 0,000 mm 2,0 UV-I 610 W/m 5,5 C 8,2 C 0,0 km/h (0 Bft) 0,00 %
15.11.2014 10:45 8,6 C 80 % 1002,9 hPa 0,0 l/m 0,7 km/h (0 Bft) O 99 15 min 0,000 mm 2,0 UV-I 660 W/m 5,3 C 8,6 C 4,0 km/h (1 Bft) 0,00 %
15.11.2014 11:00 9,1 C 77 % 1002,8 hPa 0,0 l/m 0,4 km/h (0 Bft) O-SO 108 15 min 0,000 mm 2,0 UV-I 712 W/m 5,3 C 9,1 C 4,0 km/h (1 Bft) 0,00 %
15.11.2014 11:15 9,4 C 75 % 1002,6 hPa 0,0 l/m 0,0 km/h (0 Bft) O 96 15 min 0,000 mm 2,0 UV-I 774 W/m 5,2 C 9,4 C 0,0 km/h (0 Bft) 0,00 %
15.11.2014 11:30 9,9 C 73 % 1002,6 hPa 0,0 l/m 0,0 km/h (0 Bft) O-SO 109 15 min 0,000 mm 2,0 UV-I 764 W/m 5,3 C 9,9 C 0,0 km/h (0 Bft) 0,00 %
15.11.2014 11:45 10,3 C 73 % 1002,5 hPa 0,0 l/m 0,0 km/h (0 Bft) S 173 15 min 0,000 mm 2,0 UV-I 693 W/m 5,7 C 10,3 C 0,0 km/h (0 Bft) 0,00 %
15.11.2014 12:00 10,5 C 73 % 1002,1 hPa 0,0 l/m 0,4 km/h (0 Bft) SO 136 15 min 0,000 mm 2,0 UV-I 561 W/m 5,9 C 10,5 C 4,0 km/h (1 Bft) 0,00 %
15.11.2014 12:15 10,7 C 72 % 1002,2 hPa 0,0 l/m 1,8 km/h (1 Bft) O-SO 104 15 min 0,000 mm 2,0 UV-I 615 W/m 5,9 C 10,7 C 4,0 km/h (1 Bft) 0,00 %
15.11.2014 12:30 10,9 C 71 % 1002,2 hPa 0,0 l/m 0,0 km/h (0 Bft) O-SO 118 15 min 0,000 mm 2,0 UV-I 599 W/m 5,9 C 10,9 C 0,0 km/h (0 Bft) 0,00 %
15.11.2014 12:45 11,3 C 71 % 1001,9 hPa 0,0 l/m 0,0 km/h (0 Bft) S-SW 201 15 min 0,000 mm 2,0 UV-I 543 W/m 6,2 C 11,3 C 0,0 km/h (0 Bft) 0,00 %
15.11.2014 13:00 11,5 C 70 % 1001,8 hPa 0,0 l/m 1,4 km/h (1 Bft) S-SO 151 15 min 0,000 mm 1,0 UV-I 495 W/m 6,2 C 11,5 C 4,0 km/h (1 Bft) 0,00 %
15.11.2014 13:15 11,5 C 70 % 1001,3 hPa 0,0 l/m 1,4 km/h (1 Bft) O 83 15 min 0,000 mm 1,0 UV-I 450 W/m 6,2 C 11,5 C 4,0 km/h (1 Bft) 0,00 %
15.11.2014 13:30 11,6 C 70 % 1001,2 hPa 0,0 l/m 1,4 km/h (1 Bft) O-SO 106 15 min 0,000 mm 1,0 UV-I 468 W/m 6,3 C 11,6 C 4,0 km/h (1 Bft) 0,00 %
15.11.2014 13:45 12,0 C 70 % 1001,3 hPa 0,0 l/m 0,0 km/h (0 Bft) S 174 15 min 0,000 mm 1,0 UV-I 455 W/m 6,7 C 12,0 C 0,0 km/h (0 Bft) 0,00 %
15.11.2014 14:00 12,0 C 70 % 1001,3 hPa 0,0 l/m 0,0 km/h (0 Bft) S 182 15 min 0,000 mm 1,0 UV-I 339 W/m 6,7 C 12,0 C 0,0 km/h (0 Bft) 0,00 %
15.11.2014 14:15 12,1 C 69 % 1001,4 hPa 0,0 l/m 0,0 km/h (0 Bft) S 185 15 min 0,000 mm 1,0 UV-I 347 W/m 6,6 C 12,1 C 0,0 km/h (0 Bft) 0,00 %
15.11.2014 14:30 12,1 C 71 % 1001,3 hPa 0,0 l/m 0,0 km/h (0 Bft) S-SW 210 15 min 0,000 mm 1,0 UV-I 272 W/m 7,0 C 12,1 C 0,0 km/h (0 Bft) 0,00 %
15.11.2014 14:45 12,1 C 71 % 1001,3 hPa 0,0 l/m 0,0 km/h (0 Bft) S-SW 202 15 min 0,000 mm 1,0 UV-I 207 W/m 7,0 C 12,1 C 0,0 km/h (0 Bft) 0,00 %
15.11.2014 15:00 11,9 C 72 % 1001,0 hPa 0,0 l/m 0,0 km/h (0 Bft) W-SW 249 15 min 0,000 mm 1,0 UV-I 154 W/m 7,0 C 11,9 C 0,0 km/h (0 Bft) 0,00 %
15.11.2014 15:15 11,5 C 74 % 1001,2 hPa 0,0 l/m 0,0 km/h (0 Bft) SW 231 15 min 0,000 mm 0,0 UV-I 88 W/m 7,0 C 11,5 C 0,0 km/h (0 Bft) 0,00 %
15.11.2014 15:30 11,1 C 75 % 1001,2 hPa 0,0 l/m 0,0 km/h (0 Bft) S-SW 200 0 min 0,000 mm 0,0 UV-I 51 W/m 6,8 C 11,1 C 0,0 km/h (0 Bft) 0,00 %
15.11.2014 15:45 10,7 C 76 % 1001,1 hPa 0,0 l/m 0,0 km/h (0 Bft) SW 230 0 min 0,000 mm 0,0 UV-I 7 W/m 6,6 C 10,7 C 0,0 km/h (0 Bft) 0,00 %
15.11.2014 16:00 10,2 C 77 % 1001,3 hPa 0,0 l/m 0,0 km/h (0 Bft) W-SW 255 0 min 0,000 mm 0,0 UV-I 0 W/m 6,4 C 10,2 C 0,0 km/h (0 Bft) 0,00 %
15.11.2014 16:15 9,7 C 78 % 1001,3 hPa 0,0 l/m 0,0 km/h (0 Bft) S-SW 208 0 min 0,000 mm 0,0 UV-I 0 W/m 6,1 C 9,7 C 0,0 km/h (0 Bft) 0,00 %
15.11.2014 16:30 9,3 C 80 % 1001,4 hPa 0,0 l/m 0,0 km/h (0 Bft) SW 216 0 min 0,000 mm 0,0 UV-I 0 W/m 6,0 C 9,3 C 0,0 km/h (0 Bft) 0,00 %
15.11.2014 16:45 8,8 C 81 % 1001,5 hPa 0,0 l/m 0,0 km/h (0 Bft) S 172 0 min 0,000 mm 0,0 UV-I 0 W/m 5,7 C 8,8 C 0,0 km/h (0 Bft) 0,00 %
15.11.2014 17:00 8,5 C 83 % 1001,3 hPa 0,0 l/m 0,0 km/h (0 Bft) S-SW 208 0 min 0,000 mm 0,0 UV-I 0 W/m 5,8 C 8,5 C 0,0 km/h (0 Bft) 0,00 %
15.11.2014 17:15 8,1 C 83 % 1001,0 hPa 0,0 l/m 0,0 km/h (0 Bft) S 183 0 min 0,000 mm 0,0 UV-I 0 W/m 5,4 C 8,1 C 0,0 km/h (0 Bft) 0,00 %
15.11.2014 17:30 7,8 C 83 % 1001,1 hPa 0,0 l/m 0,0 km/h (0 Bft) S 185 0 min 0,000 mm 0,0 UV-I 0 W/m 5,1 C 7,8 C 0,0 km/h (0 Bft) 0,00 %
15.11.2014 17:45 7,5 C 83 % 1001,3 hPa 0,0 l/m 0,0 km/h (0 Bft) S 185 0 min 0,000 mm 0,0 UV-I 0 W/m 4,8 C 7,5 C 0,0 km/h (0 Bft) 0,00 %
15.11.2014 18:00 7,3 C 84 % 1001,2 hPa 0,0 l/m 0,0 km/h (0 Bft) S 185 0 min 0,000 mm 0,0 UV-I 0 W/m 4,8 C 7,3 C 0,0 km/h (0 Bft) 0,00 %
15.11.2014 18:15 7,2 C 84 % 1001,2 hPa 0,0 l/m 0,0 km/h (0 Bft) SW 219 0 min 0,000 mm 0,0 UV-I 0 W/m 4,7 C 7,2 C 0,0 km/h (0 Bft) 0,00 %
15.11.2014 18:30 7,3 C 84 % 1000,8 hPa 0,0 l/m 0,0 km/h (0 Bft) S-SW 200 0 min 0,000 mm 0,0 UV-I 0 W/m 4,8 C 7,3 C 0,0 km/h (0 Bft) 0,00 %
15.11.2014 18:45 7,5 C 85 % 1000,6 hPa 0,0 l/m 0,0 km/h (0 Bft) S-SO 168 0 min 0,000 mm 0,0 UV-I 0 W/m 5,1 C 7,5 C 0,0 km/h (0 Bft) 0,00 %
15.11.2014 19:00 7,5 C 84 % 1000,6 hPa 0,0 l/m 0,0 km/h (0 Bft) S 183 0 min 0,000 mm 0,0 UV-I 0 W/m 5,0 C 7,5 C 0,0 km/h (0 Bft) 0,00 %
15.11.2014 19:15 7,2 C 84 % 999,8 hPa 0,0 l/m 0,0 km/h (0 Bft) SO 128 0 min 0,000 mm 0,0 UV-I 0 W/m 4,7 C 7,2 C 0,0 km/h (0 Bft) 0,00 %
15.11.2014 19:30 7,5 C 84 % 999,8 hPa 0,0 l/m 0,0 km/h (0 Bft) SO 134 0 min 0,000 mm 0,0 UV-I 0 W/m 5,0 C 7,5 C 0,0 km/h (0 Bft) 0,00 %
15.11.2014 19:45 7,5 C 83 % 999,7 hPa 0,0 l/m 1,8 km/h (1 Bft) O 99 0 min 0,000 mm 0,0 UV-I 0 W/m 4,8 C 7,5 C 4,0 km/h (1 Bft) 0,00 %
15.11.2014 20:00 7,8 C 82 % 999,3 hPa 0,0 l/m 3,2 km/h (1 Bft) O-SO 117 0 min 0,000 mm 0,0 UV-I 0 W/m 4,9 C 7,8 C 4,0 km/h (1 Bft) 0,00 %
15.11.2014 20:15 7,8 C 82 % 999,3 hPa 0,0 l/m 4,3 km/h (1 Bft) SO 131 0 min 0,000 mm 0,0 UV-I 0 W/m 4,9 C 7,8 C 7,9 km/h (2 Bft) 0,00 %
15.11.2014 20:30 8,0 C 82 % 998,9 hPa 0,0 l/m 0,0 km/h (0 Bft) SW 230 0 min 0,000 mm 0,0 UV-I 0 W/m 5,1 C 8,0 C 0,0 km/h (0 Bft) 0,00 %
15.11.2014 20:45 8,2 C 82 % 998,6 hPa 0,0 l/m 9,0 km/h (2 Bft) O-SO 107 0 min 0,000 mm 0,0 UV-I 0 W/m 5,3 C 6,3 C 11,9 km/h (2 Bft) 0,00 %
15.11.2014 21:00 8,1 C 82 % 998,3 hPa 0,0 l/m 6,5 km/h (2 Bft) O-SO 103 0 min 0,000 mm 0,0 UV-I 0 W/m 5,2 C 8,0 C 7,9 km/h (2 Bft) 0,00 %
15.11.2014 21:15 8,2 C 82 % 998,3 hPa 0,0 l/m 4,0 km/h (1 Bft) O-NO 72 0 min 0,000 mm 0,0 UV-I 0 W/m 5,3 C 8,2 C 7,9 km/h (2 Bft) 0,00 %
15.11.2014 21:30 8,4 C 81 % 998,0 hPa 0,0 l/m 7,2 km/h (2 Bft) O-SO 110 0 min 0,000 mm 0,0 UV-I 0 W/m 5,3 C 7,8 C 11,9 km/h (2 Bft) 0,00 %
15.11.2014 21:45 8,3 C 82 % 997,7 hPa 0,0 l/m 5,8 km/h (2 Bft) O-SO 109 0 min 0,000 mm 0,0 UV-I 0 W/m 5,4 C 8,3 C 7,9 km/h (2 Bft) 0,00 %
15.11.2014 22:00 8,3 C 81 % 997,6 hPa 0,0 l/m 3,2 km/h (1 Bft) O 81 0 min 0,000 mm 0,0 UV-I 0 W/m 5,2 C 8,3 C 4,0 km/h (1 Bft) 0,00 %
15.11.2014 22:15 8,0 C 81 % 997,3 hPa 0,0 l/m 4,7 km/h (1 Bft) O-SO 106 0 min 0,000 mm 0,0 UV-I 0 W/m 4,9 C 8,0 C 7,9 km/h (2 Bft) 0,00 %
15.11.2014 22:30 7,8 C 81 % 997,2 hPa 0,0 l/m 2,2 km/h (1 Bft) O-SO 116 0 min 0,000 mm 0,0 UV-I 0 W/m 4,7 C 7,8 C 4,0 km/h (1 Bft) 0,00 %
15.11.2014 22:45 7,9 C 81 % 997,2 hPa 0,0 l/m 7,9 km/h (2 Bft) O-NO 57 0 min 0,000 mm 0,0 UV-I 0 W/m 4,8 C 6,7 C 11,9 km/h (2 Bft) 0,00 %
15.11.2014 23:00 8,1 C 80 % 997,2 hPa 0,0 l/m 4,7 km/h (1 Bft) O-SO 120 0 min 0,000 mm 0,0 UV-I 0 W/m 4,9 C 8,1 C 7,9 km/h (2 Bft) 0,00 %
15.11.2014 23:15 8,2 C 79 % 996,4 hPa 0,0 l/m 4,0 km/h (1 Bft) N 357 0 min 0,000 mm 0,0 UV-I 0 W/m 4,8 C 8,2 C 7,9 km/h (2 Bft) 0,00 %
15.11.2014 23:30 8,3 C 78 % 996,1 hPa 0,0 l/m 4,3 km/h (1 Bft) O-NO 73 0 min 0,000 mm 0,0 UV-I 0 W/m 4,7 C 8,3 C 7,9 km/h (2 Bft) 0,00 %
15.11.2014 23:45 8,4 C 77 % 996,0 hPa 0,0 l/m 0,0 km/h (0 Bft) O-SO 109 0 min 0,000 mm 0,0 UV-I 0 W/m 4,6 C 8,4 C 0,0 km/h (0 Bft) 0,00 %
_ Min-Zeit 07:00 14:15 23:45 - 00:00 - - - - - - 07:00 07:00 00:00 00:00
Minimum _ 3,9 C 69 % 996,0 hPa - 0,0 km/h (0 Bft) - - - - - - 1,8 C 3,9 C 0,0 km/h (0 Bft) 0,00 %
_ Max-Zeit 14:15 00:15 00:30 00:45 20:45 - - 07:30 00:00 09:45 11:15 15:15 14:15 20:45 00:00
Maximum _ 12,1 C 86 % 1007,0 hPa 0,3 l/m 9,0 km/h
O-SO (2 Bft)
- - 15 min 0,000 mm 2,0 UV-I 774 W/m 7,0 C 12,1 C 11,9 km/h
O-SO (2 Bft)
0,00 %
Durchschnitt _ 7,5 C 81 % 1002,2 hPa #0,3 l/m 0,8 km/h (0 Bft) O-SO - #8:00 h #0,000 mm 1,4 UV-I 414 W/m 4,5 C 7,5 C 1,5 km/h (1 Bft) 0,00 %